Wetterdaten: Samstag, 05.03.2016
Datum Zeit Auen-Temp. Temp gefhlt Luftfeuchte Luftdruck Regen Wind Richtung Richtung Sonnenschein Taupunkt Windben
05.03.2016 00:00 -0,6 C -0,7 C 84 % 997,2 hPa 0,0 mm 0,0 km/h (0 Bft) N-NO 22 0 min -3,0 C 0,0 km/h (0 Bft)
05.03.2016 00:05 -0,7 C -0,9 C 84 % 997,2 hPa 0,0 mm 0,0 km/h (0 Bft) O-NO 67 0 min -3,1 C 0,0 km/h (0 Bft)
05.03.2016 00:10 -0,7 C -1,0 C 84 % 996,9 hPa 0,0 mm 0,0 km/h (0 Bft) N-NO 22 0 min -3,1 C 0,0 km/h (0 Bft)
05.03.2016 00:15 -0,8 C -1,1 C 84 % 996,9 hPa 0,0 mm 0,0 km/h (0 Bft) O-SO 112 0 min -3,2 C 0,0 km/h (0 Bft)
05.03.2016 00:20 -0,7 C -1,1 C 85 % 996,9 hPa 0,0 mm 0,0 km/h (0 Bft) SO 135 0 min -2,9 C 0,0 km/h (0 Bft)
05.03.2016 00:25 -0,9 C -1,2 C 85 % 996,9 hPa 0,0 mm 0,3 km/h (0 Bft) SO 135 0 min -3,1 C 0,0 km/h (0 Bft)
05.03.2016 00:30 -0,9 C -1,3 C 85 % 996,9 hPa 0,0 mm 0,3 km/h (0 Bft) W-SW 247 0 min -3,1 C 0,0 km/h (0 Bft)
05.03.2016 00:35 -0,7 C -1,1 C 82 % 996,9 hPa 0,0 mm 0,0 km/h (0 Bft) SO 135 0 min -3,4 C 0,0 km/h (0 Bft)
05.03.2016 00:40 -0,5 C -0,9 C 82 % 996,9 hPa 0,0 mm 0,3 km/h (0 Bft) S 180 0 min -3,2 C 0,0 km/h (0 Bft)
05.03.2016 00:45 -0,5 C -0,9 C 86 % 996,9 hPa 0,0 mm 0,3 km/h (0 Bft) S 180 0 min -2,5 C 0,0 km/h (0 Bft)
05.03.2016 00:50 -0,9 C -1,2 C 86 % 996,6 hPa 0,0 mm 0,0 km/h (0 Bft) NW 315 0 min -2,9 C 0,0 km/h (0 Bft)
05.03.2016 00:55 -1,2 C -1,5 C 85 % 996,6 hPa 0,0 mm 0,0 km/h (0 Bft) O-SO 112 0 min -3,4 C 0,0 km/h (0 Bft)
05.03.2016 01:00 -1,2 C -1,5 C 85 % 996,6 hPa 0,0 mm 0,0 km/h (0 Bft) O-SO 112 0 min -3,4 C 0,0 km/h (0 Bft)
05.03.2016 01:05 -1,4 C -1,7 C 85 % 996,6 hPa 0,0 mm 0,9 km/h (0 Bft) NW 315 0 min -3,6 C 3,9 km/h (1 Bft)
05.03.2016 01:10 -1,5 C -1,8 C 85 % 996,3 hPa 0,0 mm 0,9 km/h (0 Bft) W 270 0 min -3,7 C 5,7 km/h (1 Bft)
05.03.2016 01:15 -1,5 C -1,7 C 85 % 996,3 hPa 0,0 mm 0,6 km/h (0 Bft) N-NO 22 0 min -3,7 C 7,2 km/h (2 Bft)
05.03.2016 01:20 -1,2 C -1,5 C 85 % 996,3 hPa 0,0 mm 1,8 km/h (1 Bft) SO 135 0 min -3,4 C 0,0 km/h (0 Bft)
05.03.2016 01:25 -1,0 C -1,0 C 82 % 996,3 hPa 0,0 mm 2,4 km/h (1 Bft) O-SO 112 0 min -3,7 C 4,5 km/h (1 Bft)
05.03.2016 01:30 -0,3 C 0,1 C 82 % 996,2 hPa 0,0 mm 1,2 km/h (1 Bft) SO 135 0 min -3,0 C 14,9 km/h (3 Bft)
05.03.2016 01:35 1,0 C 1,3 C 82 % 996,2 hPa 0,0 mm 0,9 km/h (0 Bft) SO 135 0 min -1,7 C 0,0 km/h (0 Bft)
05.03.2016 01:40 1,9 C 2,1 C 80 % 996,2 hPa 0,0 mm 1,5 km/h (1 Bft) W 270 0 min -1,2 C 5,1 km/h (1 Bft)
05.03.2016 01:45 2,7 C 2,7 C 76 % 996,2 hPa 0,0 mm 2,7 km/h (1 Bft) O-NO 67 0 min -1,1 C 4,2 km/h (1 Bft)
05.03.2016 01:50 3,0 C 3,3 C 75 % 995,9 hPa 0,0 mm 3,9 km/h (1 Bft) SW 225 0 min -1,0 C 11,3 km/h (2 Bft)
05.03.2016 01:55 3,9 C 4,0 C 70 % 995,9 hPa 0,0 mm 3,3 km/h (1 Bft) O-NO 67 0 min -1,1 C 3,6 km/h (1 Bft)
05.03.2016 02:00 3,9 C 4,0 C 70 % 995,9 hPa 0,0 mm 3,3 km/h (1 Bft) SO 135 0 min -1,1 C 8,6 km/h (2 Bft)
05.03.2016 02:05 3,9 C 4,3 C 70 % 995,9 hPa 0,0 mm 3,6 km/h (1 Bft) SO 135 0 min -1,1 C 6,3 km/h (2 Bft)
05.03.2016 02:10 4,6 C 4,7 C 60 % 995,8 hPa 0,0 mm 4,2 km/h (1 Bft) NW 315 0 min -2,5 C 16,7 km/h (3 Bft)
05.03.2016 02:15 4,1 C 4,8 C 59 % 995,8 hPa 0,0 mm 3,3 km/h (1 Bft) O-NO 67 0 min -3,2 C 3,3 km/h (1 Bft)
05.03.2016 02:20 4,3 C 5,0 C 59 % 995,8 hPa 0,0 mm 3,3 km/h (1 Bft) O-SO 112 0 min -3,0 C 4,5 km/h (1 Bft)
05.03.2016 02:25 4,4 C 5,0 C 58 % 995,8 hPa 0,0 mm 3,3 km/h (1 Bft) W-SW 247 0 min -3,1 C 5,7 km/h (1 Bft)
05.03.2016 02:30 4,7 C 5,0 C 57 % 995,6 hPa 0,0 mm 3,3 km/h (1 Bft) O-NO 67 0 min -3,1 C 8,3 km/h (2 Bft)
05.03.2016 02:35 4,7 C 5,0 C 57 % 995,6 hPa 0,0 mm 3,6 km/h (1 Bft) NO 45 0 min -3,1 C 0,0 km/h (0 Bft)
05.03.2016 02:40 4,3 C 4,8 C 57 % 995,6 hPa 0,0 mm 3,0 km/h (1 Bft) O-SO 112 0 min -3,5 C 0,0 km/h (0 Bft)
05.03.2016 02:45 4,3 C 4,7 C 57 % 995,6 hPa 0,0 mm 1,8 km/h (1 Bft) SO 135 0 min -3,5 C 0,0 km/h (0 Bft)
05.03.2016 02:50 4,5 C 4,6 C 57 % 995,4 hPa 0,0 mm 2,1 km/h (1 Bft) O-NO 67 0 min -3,3 C 3,9 km/h (1 Bft)
05.03.2016 02:55 4,2 C 4,5 C 57 % 995,4 hPa 0,0 mm 1,5 km/h (1 Bft) S-SO 157 0 min -3,5 C 0,0 km/h (0 Bft)
05.03.2016 02:59 4,4 C 4,4 C 57 % 995,4 hPa 0,0 mm 1,5 km/h (1 Bft) SO 135 0 min -3,4 C 0,0 km/h (0 Bft)
05.03.2016 03:00 4,4 C 4,4 C 57 % 995,4 hPa 0,0 mm 1,5 km/h (1 Bft) SO 135 0 min -3,4 C 0,0 km/h (0 Bft)
05.03.2016 03:05 4,0 C 4,2 C 57 % 995,4 hPa 0,0 mm 0,9 km/h (0 Bft) S-SO 157 0 min -3,7 C 0,0 km/h (0 Bft)
05.03.2016 03:10 3,8 C 4,0 C 57 % 995,1 hPa 0,0 mm 0,3 km/h (0 Bft) SO 135 0 min -3,9 C 0,0 km/h (0 Bft)
05.03.2016 03:15 3,9 C 4,0 C 57 % 995,1 hPa 0,0 mm 0,6 km/h (0 Bft) O-NO 67 0 min -3,8 C 0,0 km/h (0 Bft)
05.03.2016 03:20 3,9 C 4,0 C 57 % 995,1 hPa 0,0 mm 0,6 km/h (0 Bft) N-NO 22 0 min -3,8 C 4,8 km/h (1 Bft)
05.03.2016 03:25 3,8 C 4,0 C 57 % 995,1 hPa 0,0 mm 0,6 km/h (0 Bft) NO 45 0 min -3,9 C 4,2 km/h (1 Bft)
05.03.2016 03:30 3,9 C 4,0 C 57 % 994,8 hPa 0,0 mm 0,6 km/h (0 Bft) O-NO 67 0 min -3,8 C 0,0 km/h (0 Bft)
05.03.2016 03:35 3,7 C 4,0 C 57 % 994,8 hPa 0,0 mm 0,3 km/h (0 Bft) S 180 0 min -4,0 C 0,0 km/h (0 Bft)
05.03.2016 03:40 3,9 C 3,9 C 57 % 994,8 hPa 0,0 mm 0,0 km/h (0 Bft) SO 135 0 min -3,8 C 0,0 km/h (0 Bft)
05.03.2016 03:45 4,1 C 4,0 C 57 % 994,8 hPa 0,0 mm 0,0 km/h (0 Bft) O 90 0 min -3,6 C 0,0 km/h (0 Bft)
05.03.2016 03:50 4,0 C 4,0 C 57 % 995,0 hPa 0,0 mm 2,7 km/h (1 Bft) NW 315 0 min -3,7 C 18,8 km/h (3 Bft)
05.03.2016 03:55 3,7 C 3,7 C 57 % 995,0 hPa 0,0 mm 6,3 km/h (2 Bft) W-SW 247 0 min -4,0 C 7,7 km/h (2 Bft)
05.03.2016 04:00 3,5 C 3,4 C 57 % 995,0 hPa 0,0 mm 7,5 km/h (2 Bft) W 270 0 min -4,2 C 18,8 km/h (3 Bft)
05.03.2016 04:05 3,3 C 3,3 C 57 % 995,0 hPa 0,0 mm 5,1 km/h (1 Bft) W-NW 292 0 min -4,4 C 4,2 km/h (1 Bft)
05.03.2016 04:10 3,3 C 3,2 C 57 % 994,8 hPa 0,0 mm 5,4 km/h (1 Bft) SW 225 0 min -4,4 C 17,9 km/h (3 Bft)
05.03.2016 04:15 3,4 C 3,2 C 57 % 994,8 hPa 0,0 mm 7,2 km/h (2 Bft) SW 225 0 min -4,3 C 7,2 km/h (2 Bft)
05.03.2016 04:20 3,3 C 3,1 C 57 % 994,8 hPa 0,0 mm 6,9 km/h (2 Bft) SO 135 0 min -4,4 C 20,0 km/h (4 Bft)
05.03.2016 04:25 2,8 C 2,9 C 58 % 994,8 hPa 0,0 mm 2,4 km/h (1 Bft) W 270 0 min -4,6 C 0,0 km/h (0 Bft)
05.03.2016 04:30 2,5 C 2,6 C 58 % 994,6 hPa 0,0 mm 1,2 km/h (1 Bft) S-SW 202 0 min -4,9 C 4,8 km/h (1 Bft)
05.03.2016 04:35 2,3 C 2,4 C 59 % 994,6 hPa 0,0 mm 1,2 km/h (1 Bft) O-NO 67 0 min -4,9 C 0,0 km/h (0 Bft)
05.03.2016 04:40 2,0 C 2,1 C 59 % 994,6 hPa 0,0 mm 1,2 km/h (1 Bft) NW 315 0 min -5,2 C 3,0 km/h (1 Bft)
05.03.2016 04:45 2,0 C 1,9 C 63 % 994,6 hPa 0,0 mm 0,6 km/h (0 Bft) O-SO 112 0 min -4,3 C 3,0 km/h (1 Bft)
05.03.2016 04:50 2,0 C 1,8 C 63 % 994,5 hPa 0,0 mm 1,2 km/h (1 Bft) O-SO 112 0 min -4,3 C 0,0 km/h (0 Bft)
05.03.2016 04:55 2,0 C 1,7 C 62 % 994,5 hPa 0,0 mm 1,2 km/h (1 Bft) W-SW 247 0 min -4,5 C 0,0 km/h (0 Bft)
05.03.2016 05:00 2,0 C 1,7 C 61 % 994,5 hPa 0,0 mm 0,6 km/h (0 Bft) W-SW 247 0 min -4,7 C 0,0 km/h (0 Bft)
05.03.2016 05:05 2,1 C 1,8 C 62 % 994,5 hPa 0,0 mm 0,3 km/h (0 Bft) SW 225 0 min -4,4 C 0,0 km/h (0 Bft)
05.03.2016 05:10 1,5 C 1,4 C 62 % 994,4 hPa 0,0 mm 0,0 km/h (0 Bft) O-SO 112 0 min -5,0 C 0,0 km/h (0 Bft)
05.03.2016 05:15 1,1 C 1,0 C 65 % 994,4 hPa 0,0 mm 0,0 km/h (0 Bft) O 90 0 min -4,7 C 0,0 km/h (0 Bft)
05.03.2016 05:20 1,5 C 1,2 C 65 % 994,4 hPa 0,0 mm 0,3 km/h (0 Bft) W-SW 247 0 min -4,3 C 3,0 km/h (1 Bft)
05.03.2016 05:25 1,6 C 1,3 C 65 % 994,4 hPa 0,0 mm 1,8 km/h (1 Bft) SW 225 0 min -4,3 C 5,7 km/h (1 Bft)
05.03.2016 05:30 1,5 C 1,3 C 65 % 994,6 hPa 0,0 mm 1,8 km/h (1 Bft) S 180 0 min -4,3 C 0,0 km/h (0 Bft)
05.03.2016 05:35 1,3 C 1,1 C 66 % 994,6 hPa 0,0 mm 0,6 km/h (0 Bft) SO 135 0 min -4,3 C 0,0 km/h (0 Bft)
05.03.2016 05:40 1,1 C 0,9 C 66 % 994,6 hPa 0,0 mm 0,0 km/h (0 Bft) W 270 0 min -4,5 C 0,0 km/h (0 Bft)
05.03.2016 05:45 0,4 C 0,3 C 68 % 994,6 hPa 0,0 mm 0,3 km/h (0 Bft) O 90 0 min -4,8 C 0,0 km/h (0 Bft)
05.03.2016 05:50 0,2 C -0,1 C 68 % 994,9 hPa 0,0 mm 0,3 km/h (0 Bft) W-SW 247 0 min -5,0 C 0,0 km/h (0 Bft)
05.03.2016 05:55 0,2 C -0,2 C 68 % 994,9 hPa 0,0 mm 0,0 km/h (0 Bft) NW 315 0 min -5,0 C 0,0 km/h (0 Bft)
05.03.2016 05:59 -0,2 C -0,5 C 68 % 994,9 hPa 0,0 mm 0,3 km/h (0 Bft) W-SW 247 0 min -5,4 C 0,0 km/h (0 Bft)
05.03.2016 06:01 -0,2 C -0,5 C 68 % 994,9 hPa 0,0 mm 0,3 km/h (0 Bft) W-SW 247 0 min -5,4 C 0,0 km/h (0 Bft)
05.03.2016 06:05 -0,6 C -0,9 C 68 % 994,9 hPa 0,0 mm 0,3 km/h (0 Bft) SO 135 0 min -5,8 C 0,0 km/h (0 Bft)
05.03.2016 06:10 -0,4 C -0,8 C 69 % 995,1 hPa 0,0 mm 0,9 km/h (0 Bft) W 270 0 min -5,4 C 3,9 km/h (1 Bft)
05.03.2016 06:15 0,3 C -0,2 C 69 % 995,1 hPa 0,0 mm 3,3 km/h (1 Bft) W-SW 247 0 min -4,7 C 6,3 km/h (2 Bft)
05.03.2016 06:20 0,6 C 0,0 C 69 % 995,1 hPa 0,0 mm 5,4 km/h (1 Bft) W-SW 247 0 min -4,4 C 9,5 km/h (2 Bft)
05.03.2016 06:25 0,9 C 0,1 C 69 % 995,1 hPa 0,0 mm 7,7 km/h (2 Bft) W-SW 247 0 min -4,1 C 6,3 km/h (2 Bft)
05.03.2016 06:30 1,0 C 0,2 C 68 % 995,9 hPa 0,0 mm 8,3 km/h (2 Bft) SW 225 0 min -4,2 C 14,6 km/h (3 Bft)
05.03.2016 06:35 1,2 C 0,4 C 67 % 995,9 hPa 0,0 mm 8,9 km/h (2 Bft) SW 225 0 min -4,2 C 14,3 km/h (3 Bft)
05.03.2016 06:40 1,4 C 0,5 C 67 % 995,9 hPa 0,0 mm 10,1 km/h (2 Bft) W-SW 247 0 min -4,0 C 9,5 km/h (2 Bft)
05.03.2016 06:45 1,6 C 0,6 C 65 % 995,9 hPa 0,0 mm 11,6 km/h (2 Bft) SW 225 0 min -4,3 C 25,0 km/h (4 Bft)
05.03.2016 06:50 1,9 C 0,9 C 64 % 995,9 hPa 0,0 mm 12,5 km/h (3 Bft) S-SW 202 0 min -4,2 C 17,0 km/h (3 Bft)
05.03.2016 06:55 2,1 C 1,3 C 63 % 995,9 hPa 0,0 mm 14,3 km/h (3 Bft) SW 225 0 min -4,2 C 18,5 km/h (3 Bft)
05.03.2016 07:00 2,1 C 1,2 C 63 % 995,9 hPa 0,0 mm 13,1 km/h (3 Bft) W-SW 247 0 min -4,2 C 14,3 km/h (3 Bft)
05.03.2016 07:05 2,0 C 1,4 C 63 % 995,9 hPa 0,0 mm 9,8 km/h (2 Bft) S-SO 157 0 min -4,3 C 9,2 km/h (2 Bft)
05.03.2016 07:10 2,1 C 1,5 C 63 % 996,1 hPa 0,0 mm 9,2 km/h (2 Bft) W-SW 247 0 min -4,2 C 12,2 km/h (2 Bft)
05.03.2016 07:15 2,3 C 1,7 C 63 % 996,1 hPa 0,0 mm 8,6 km/h (2 Bft) SW 225 0 min -4,0 C 9,8 km/h (2 Bft)
05.03.2016 07:21 2,4 C 1,9 C 63 % 996,1 hPa 0,0 mm 8,3 km/h (2 Bft) S 180 0 min -3,9 C 8,3 km/h (2 Bft)
05.03.2016 07:25 2,4 C 2,0 C 63 % 996,1 hPa 0,0 mm 8,6 km/h (2 Bft) W-SW 247 0 min -3,9 C 6,3 km/h (2 Bft)
05.03.2016 07:30 2,4 C 2,0 C 63 % 996,4 hPa 0,0 mm 7,5 km/h (2 Bft) SW 225 0 min -3,9 C 5,4 km/h (1 Bft)
05.03.2016 07:35 2,4 C 2,3 C 63 % 996,4 hPa 0,0 mm 6,6 km/h (2 Bft) S 180 0 min -3,9 C 10,1 km/h (2 Bft)
05.03.2016 07:40 2,4 C 2,4 C 63 % 996,4 hPa 0,0 mm 7,5 km/h (2 Bft) W-SW 247 0 min -3,9 C 6,3 km/h (2 Bft)
05.03.2016 07:45 2,4 C 2,5 C 63 % 996,4 hPa 0,0 mm 7,5 km/h (2 Bft) W-SW 247 0 min -3,9 C 5,7 km/h (1 Bft)
05.03.2016 07:50 2,4 C 2,7 C 63 % 996,4 hPa 0,0 mm 6,3 km/h (2 Bft) W-SW 247 0 min -3,9 C 5,7 km/h (1 Bft)
05.03.2016 07:55 2,4 C 2,8 C 63 % 996,4 hPa 0,0 mm 6,3 km/h (2 Bft) S 180 0 min -3,9 C 8,0 km/h (2 Bft)
05.03.2016 08:00 2,4 C 2,7 C 63 % 996,4 hPa 0,0 mm 6,9 km/h (2 Bft) W 270 0 min -3,9 C 6,0 km/h (2 Bft)
05.03.2016 08:05 2,4 C 2,7 C 63 % 996,4 hPa 0,0 mm 7,5 km/h (2 Bft) W 270 0 min -3,9 C 5,4 km/h (1 Bft)
05.03.2016 08:10 2,4 C 2,9 C 63 % 996,4 hPa 0,0 mm 6,0 km/h (2 Bft) SW 225 0 min -3,9 C 8,6 km/h (2 Bft)
05.03.2016 08:15 2,4 C 3,5 C 63 % 996,4 hPa 0,0 mm 3,6 km/h (1 Bft) O-NO 67 0 min -3,9 C 0,0 km/h (0 Bft)
05.03.2016 08:20 2,1 C 3,7 C 63 % 996,4 hPa 0,0 mm 2,4 km/h (1 Bft) O-SO 112 0 min -4,2 C 0,0 km/h (0 Bft)
05.03.2016 08:25 2,4 C 3,9 C 63 % 996,4 hPa 0,0 mm 0,0 km/h (0 Bft) NW 315 0 min -3,9 C 0,0 km/h (0 Bft)
05.03.2016 08:30 2,4 C 4,2 C 63 % 996,4 hPa 0,0 mm 1,2 km/h (1 Bft) W 270 0 min -3,9 C 3,6 km/h (1 Bft)
05.03.2016 08:35 2,4 C 4,7 C 63 % 996,4 hPa 0,0 mm 4,8 km/h (1 Bft) O-NO 67 0 min -3,9 C 6,0 km/h (2 Bft)
05.03.2016 08:40 2,4 C 4,4 C 63 % 996,4 hPa 0,0 mm 6,9 km/h (2 Bft) SW 225 0 min -3,9 C 11,3 km/h (2 Bft)
05.03.2016 08:45 2,4 C 4,7 C 63 % 996,4 hPa 0,0 mm 7,5 km/h (2 Bft) W-SW 247 0 min -3,9 C 8,9 km/h (2 Bft)
05.03.2016 08:50 2,4 C 5,0 C 63 % 996,1 hPa 0,0 mm 7,2 km/h (2 Bft) W-SW 247 0 min -3,9 C 8,3 km/h (2 Bft)
05.03.2016 08:55 3,8 C 5,7 C 62 % 996,1 hPa 0,0 mm 6,0 km/h (2 Bft) SW 225 0 min -2,8 C 8,6 km/h (2 Bft)
05.03.2016 09:00 3,8 C 5,9 C 62 % 996,1 hPa 0,0 mm 5,7 km/h (1 Bft) SW 225 0 min -2,8 C 9,2 km/h (2 Bft)
05.03.2016 09:02 3,8 C 5,9 C 62 % 996,1 hPa 0,0 mm 5,7 km/h (1 Bft) SW 225 0 min -2,8 C 9,2 km/h (2 Bft)
05.03.2016 09:05 3,9 C 6,0 C 63 % 996,1 hPa 0,0 mm 5,1 km/h (1 Bft) SW 225 0 min -2,5 C 3,9 km/h (1 Bft)
05.03.2016 09:10 4,1 C 6,2 C 62 % 996,2 hPa 0,0 mm 3,9 km/h (1 Bft) SW 225 0 min -2,5 C 4,2 km/h (1 Bft)
05.03.2016 09:15 4,2 C 6,3 C 63 % 996,2 hPa 0,0 mm 3,6 km/h (1 Bft) W-SW 247 0 min -2,2 C 6,9 km/h (2 Bft)
05.03.2016 09:20 4,3 C 6,4 C 63 % 996,2 hPa 0,0 mm 5,4 km/h (1 Bft) W-SW 247 0 min -2,1 C 7,5 km/h (2 Bft)
05.03.2016 09:26 4,4 C 6,3 C 63 % 996,2 hPa 0,0 mm 6,9 km/h (2 Bft) W-NW 292 0 min -2,0 C 5,1 km/h (1 Bft)
05.03.2016 09:30 4,5 C 6,7 C 63 % 996,5 hPa 0,0 mm 6,3 km/h (2 Bft) N-NO 22 0 min -1,9 C 7,5 km/h (2 Bft)
05.03.2016 09:37 4,6 C 7,0 C 63 % 996,5 hPa 0,0 mm 4,8 km/h (1 Bft) W 270 0 min -1,8 C 6,3 km/h (2 Bft)
05.03.2016 09:40 4,7 C 7,1 C 63 % 996,5 hPa 0,0 mm 4,5 km/h (1 Bft) SW 225 0 min -1,7 C 7,2 km/h (2 Bft)
05.03.2016 09:45 4,8 C 7,4 C 63 % 996,5 hPa 0,0 mm 4,2 km/h (1 Bft) W 270 0 min -1,6 C 6,9 km/h (2 Bft)
05.03.2016 09:50 4,8 C 7,4 C 62 % 996,4 hPa 0,0 mm 4,5 km/h (1 Bft) SW 225 0 min -1,9 C 8,9 km/h (2 Bft)
05.03.2016 09:55 5,0 C 7,4 C 62 % 996,4 hPa 0,0 mm 5,1 km/h (1 Bft) SW 225 0 min -1,7 C 3,9 km/h (1 Bft)
05.03.2016 10:00 5,1 C 7,4 C 62 % 996,4 hPa 0,0 mm 4,5 km/h (1 Bft) NW 315 0 min -1,6 C 4,8 km/h (1 Bft)
05.03.2016 10:05 5,4 C 7,5 C 62 % 996,4 hPa 0,0 mm 6,6 km/h (2 Bft) NW 315 0 min -1,3 C 14,3 km/h (3 Bft)
05.03.2016 10:10 5,1 C 6,3 C 62 % 996,5 hPa 0,0 mm 9,8 km/h (2 Bft) W-NW 292 0 min -1,6 C 22,1 km/h (4 Bft)
05.03.2016 10:15 4,8 C 5,9 C 63 % 996,5 hPa 0,0 mm 11,0 km/h (2 Bft) NW 315 0 min -1,6 C 7,5 km/h (2 Bft)
05.03.2016 10:20 4,8 C 6,1 C 63 % 996,5 hPa 0,0 mm 8,9 km/h (2 Bft) NW 315 0 min -1,6 C 9,2 km/h (2 Bft)
05.03.2016 10:25 4,8 C 6,7 C 64 % 996,5 hPa 0,0 mm 6,6 km/h (2 Bft) W 270 0 min -1,4 C 6,0 km/h (2 Bft)
05.03.2016 10:30 4,6 C 6,7 C 64 % 996,8 hPa 0,0 mm 7,7 km/h (2 Bft) W 270 0 min -1,6 C 10,7 km/h (2 Bft)
05.03.2016 10:35 4,5 C 6,3 C 64 % 996,8 hPa 0,0 mm 9,2 km/h (2 Bft) NW 315 0 min -1,7 C 10,7 km/h (2 Bft)
05.03.2016 10:40 4,7 C 6,7 C 65 % 996,8 hPa 0,0 mm 8,3 km/h (2 Bft) N-NO 22 0 min -1,3 C 14,0 km/h (3 Bft)
05.03.2016 10:45 4,8 C 6,8 C 65 % 996,8 hPa 0,0 mm 8,9 km/h (2 Bft) W-NW 292 0 min -1,2 C 10,1 km/h (2 Bft)
05.03.2016 10:50 4,8 C 6,7 C 65 % 996,8 hPa 0,0 mm 10,1 km/h (2 Bft) W-NW 292 0 min -1,2 C 15,8 km/h (3 Bft)
05.03.2016 10:55 4,9 C 7,4 C 66 % 996,8 hPa 0,0 mm 8,9 km/h (2 Bft) NW 315 0 min -0,9 C 16,7 km/h (3 Bft)
05.03.2016 11:00 4,9 C 7,6 C 66 % 996,8 hPa 0,0 mm 8,6 km/h (2 Bft) W-NW 292 0 min -0,9 C 7,2 km/h (2 Bft)
05.03.2016 11:05 4,8 C 7,2 C 66 % 996,8 hPa 0,0 mm 12,2 km/h (2 Bft) W 270 0 min -1,0 C 17,9 km/h (3 Bft)
05.03.2016 11:10 4,7 C 7,1 C 66 % 997,2 hPa 0,0 mm 12,5 km/h (3 Bft) W 270 0 min -1,1 C 14,6 km/h (3 Bft)
05.03.2016 11:15 4,6 C 6,7 C 67 % 997,2 hPa 0,0 mm 13,7 km/h (3 Bft) NW 315 0 min -1,0 C 17,9 km/h (3 Bft)
05.03.2016 11:20 4,5 C 6,8 C 67 % 997,2 hPa 0,0 mm 15,5 km/h (3 Bft) W 270 0 min -1,1 C 26,8 km/h (4 Bft)
05.03.2016 11:25 4,5 C 6,4 C 68 % 997,2 hPa 0,0 mm 16,1 km/h (3 Bft) W-NW 292 0 min -0,9 C 21,2 km/h (4 Bft)
05.03.2016 11:30 4,5 C 6,2 C 68 % 997,4 hPa 0,0 mm 15,5 km/h (3 Bft) W 270 0 min -0,9 C 28,0 km/h (4 Bft)
05.03.2016 11:35 4,4 C 6,2 C 68 % 997,4 hPa 0,0 mm 14,6 km/h (3 Bft) W-NW 292 0 min -1,0 C 22,7 km/h (4 Bft)
05.03.2016 11:40 4,4 C 6,2 C 68 % 997,4 hPa 0,0 mm 14,9 km/h (3 Bft) W 270 0 min -1,0 C 20,9 km/h (4 Bft)
05.03.2016 11:45 4,4 C 6,5 C 68 % 997,4 hPa 0,0 mm 13,7 km/h (3 Bft) W-NW 292 0 min -1,0 C 18,2 km/h (3 Bft)
05.03.2016 11:50 4,4 C 6,4 C 69 % 997,4 hPa 0,0 mm 13,4 km/h (3 Bft) W-NW 292 0 min -0,8 C 17,3 km/h (3 Bft)
05.03.2016 11:55 4,8 C 7,4 C 69 % 997,4 hPa 0,0 mm 12,5 km/h (3 Bft) W-NW 292 0 min -0,4 C 16,1 km/h (3 Bft)
05.03.2016 11:59 5,0 C 7,6 C 68 % 997,4 hPa 0,0 mm 10,7 km/h (2 Bft) N-NW 337 0 min -0,4 C 7,7 km/h (2 Bft)
05.03.2016 12:03 5,0 C 7,6 C 68 % 997,4 hPa 0,0 mm 10,7 km/h (2 Bft) N-NW 337 0 min -0,4 C 7,7 km/h (2 Bft)
05.03.2016 12:05 4,9 C 7,8 C 68 % 997,4 hPa 0,0 mm 9,2 km/h (2 Bft) W 270 0 min -0,5 C 10,1 km/h (2 Bft)
05.03.2016 12:10 4,6 C 7,4 C 68 % 997,2 hPa 0,0 mm 9,5 km/h (2 Bft) W-NW 292 0 min -0,8 C 8,6 km/h (2 Bft)
05.03.2016 12:15 4,6 C 7,2 C 69 % 997,2 hPa 0,0 mm 8,9 km/h (2 Bft) W 270 0 min -0,6 C 6,3 km/h (2 Bft)
05.03.2016 12:20 4,7 C 7,7 C 69 % 997,2 hPa 0,0 mm 7,5 km/h (2 Bft) W 270 0 min -0,5 C 6,6 km/h (2 Bft)
05.03.2016 12:25 4,9 C 8,3 C 69 % 997,2 hPa 0,0 mm 6,3 km/h (2 Bft) W-NW 292 0 min -0,3 C 7,7 km/h (2 Bft)
05.03.2016 12:30 5,0 C 8,5 C 69 % 997,0 hPa 0,0 mm 6,0 km/h (2 Bft) NW 315 0 min -0,2 C 8,6 km/h (2 Bft)
05.03.2016 12:35 5,1 C 8,6 C 68 % 997,0 hPa 0,0 mm 5,4 km/h (1 Bft) NW 315 0 min -0,3 C 6,0 km/h (2 Bft)
05.03.2016 12:40 5,4 C 8,9 C 68 % 997,0 hPa 0,0 mm 5,7 km/h (1 Bft) N-NW 337 0 min -0,0 C 6,9 km/h (2 Bft)
05.03.2016 12:45 5,4 C 8,7 C 68 % 997,0 hPa 0,0 mm 6,0 km/h (2 Bft) N-NW 337 0 min -0,0 C 8,9 km/h (2 Bft)
05.03.2016 12:50 5,4 C 8,4 C 68 % 996,8 hPa 0,0 mm 6,6 km/h (2 Bft) N-NW 337 0 min -0,0 C 7,7 km/h (2 Bft)
05.03.2016 12:55 5,5 C 8,0 C 68 % 996,8 hPa 0,0 mm 6,3 km/h (2 Bft) N-NO 22 0 min 0,1 C 5,1 km/h (1 Bft)
05.03.2016 13:00 5,5 C 8,0 C 68 % 996,8 hPa 0,0 mm 5,7 km/h (1 Bft) NW 315 0 min 0,1 C 8,0 km/h (2 Bft)
05.03.2016 13:05 5,4 C 8,2 C 68 % 996,8 hPa 0,0 mm 6,0 km/h (2 Bft) NW 315 0 min -0,0 C 11,6 km/h (2 Bft)
05.03.2016 13:10 5,5 C 8,3 C 68 % 996,3 hPa 0,0 mm 7,2 km/h (2 Bft) NW 315 0 min 0,1 C 14,0 km/h (3 Bft)
05.03.2016 13:16 5,6 C 8,2 C 68 % 996,3 hPa 0,0 mm 7,2 km/h (2 Bft) NW 315 0 min 0,2 C 4,2 km/h (1 Bft)
05.03.2016 13:20 5,5 C 8,5 C 67 % 996,3 hPa 0,0 mm 6,3 km/h (2 Bft) NW 315 0 min -0,1 C 10,1 km/h (2 Bft)
05.03.2016 13:25 5,0 C 8,3 C 67 % 996,3 hPa 0,0 mm 6,0 km/h (2 Bft) NW 315 0 min -0,6 C 7,7 km/h (2 Bft)
05.03.2016 13:30 5,0 C 8,0 C 67 % 996,5 hPa 0,0 mm 6,0 km/h (2 Bft) W 270 0 min -0,6 C 5,4 km/h (1 Bft)
05.03.2016 13:35 5,1 C 7,9 C 68 % 996,5 hPa 0,0 mm 4,8 km/h (1 Bft) NW 315 0 min -0,3 C 9,8 km/h (2 Bft)
05.03.2016 13:40 5,4 C 7,8 C 68 % 996,5 hPa 0,0 mm 6,0 km/h (2 Bft) NW 315 0 min -0,0 C 12,5 km/h (3 Bft)
05.03.2016 13:45 5,0 C 7,0 C 68 % 996,5 hPa 0,0 mm 8,0 km/h (2 Bft) W-NW 292 0 min -0,4 C 6,3 km/h (2 Bft)
05.03.2016 13:50 5,0 C 6,7 C 68 % 996,2 hPa 0,0 mm 8,0 km/h (2 Bft) NW 315 0 min -0,4 C 7,7 km/h (2 Bft)
05.03.2016 13:55 4,9 C 6,8 C 68 % 996,2 hPa 0,0 mm 6,0 km/h (2 Bft) NW 315 0 min -0,5 C 3,6 km/h (1 Bft)
05.03.2016 14:00 4,8 C 7,0 C 68 % 996,2 hPa 0,0 mm 5,1 km/h (1 Bft) NW 315 0 min -0,6 C 6,3 km/h (2 Bft)
05.03.2016 14:05 4,6 C 6,8 C 68 % 996,2 hPa 0,0 mm 5,1 km/h (1 Bft) W-NW 292 0 min -0,8 C 5,7 km/h (1 Bft)
05.03.2016 14:10 4,6 C 6,4 C 68 % 996,1 hPa 0,0 mm 5,7 km/h (1 Bft) NW 315 0 min -0,8 C 4,5 km/h (1 Bft)
05.03.2016 14:15 4,4 C 6,1 C 68 % 996,1 hPa 0,0 mm 4,2 km/h (1 Bft) W-NW 292 0 min -1,0 C 3,9 km/h (1 Bft)
05.03.2016 14:20 4,3 C 5,9 C 68 % 996,1 hPa 0,0 mm 2,4 km/h (1 Bft) NW 315 0 min -1,1 C 0,0 km/h (0 Bft)
05.03.2016 14:25 4,2 C 5,6 C 69 % 996,1 hPa 0,0 mm 2,4 km/h (1 Bft) NW 315 0 min -1,0 C 5,4 km/h (1 Bft)
05.03.2016 14:30 4,2 C 5,4 C 69 % 996,1 hPa 0,0 mm 3,0 km/h (1 Bft) W 270 0 min -1,0 C 7,7 km/h (2 Bft)
05.03.2016 14:35 3,9 C 5,1 C 69 % 996,1 hPa 0,0 mm 4,5 km/h (1 Bft) W 270 0 min -1,3 C 7,5 km/h (2 Bft)
05.03.2016 14:40 3,8 C 4,8 C 70 % 996,1 hPa 0,0 mm 5,1 km/h (1 Bft) W 270 0 min -1,2 C 10,1 km/h (2 Bft)
05.03.2016 14:45 3,8 C 4,6 C 70 % 996,1 hPa 0,0 mm 4,2 km/h (1 Bft) W-NW 292 0 min -1,2 C 5,4 km/h (1 Bft)
05.03.2016 14:50 3,7 C 4,4 C 70 % 995,9 hPa 0,0 mm 4,2 km/h (1 Bft) NW 315 0 min -1,3 C 6,3 km/h (2 Bft)
05.03.2016 14:55 3,6 C 4,2 C 70 % 995,9 hPa 0,0 mm 5,1 km/h (1 Bft) NW 315 0 min -1,3 C 8,3 km/h (2 Bft)
05.03.2016 15:00 3,6 C 4,2 C 70 % 995,9 hPa 0,0 mm 5,1 km/h (1 Bft) W 270 0 min -1,3 C 5,4 km/h (1 Bft)
05.03.2016 15:04 3,6 C 4,2 C 70 % 995,9 hPa 0,0 mm 5,1 km/h (1 Bft) W 270 0 min -1,3 C 5,4 km/h (1 Bft)
05.03.2016 15:05 3,5 C 4,0 C 71 % 995,9 hPa 0,0 mm 4,5 km/h (1 Bft) NW 315 0 min -1,3 C 6,6 km/h (2 Bft)
05.03.2016 15:10 3,5 C 3,9 C 71 % 995,9 hPa 0,0 mm 5,1 km/h (1 Bft) W 270 0 min -1,3 C 9,5 km/h (2 Bft)
05.03.2016 15:15 3,4 C 3,6 C 71 % 995,9 hPa 0,0 mm 5,7 km/h (1 Bft) W-NW 292 0 min -1,3 C 4,5 km/h (1 Bft)
05.03.2016 15:20 3,3 C 3,4 C 72 % 995,9 hPa 0,0 mm 6,3 km/h (2 Bft) W 270 0 min -1,3 C 11,6 km/h (2 Bft)
05.03.2016 15:25 3,0 C 2,7 C 72 % 995,9 hPa 0,0 mm 8,6 km/h (2 Bft) W-SW 247 0 min -1,5 C 10,1 km/h (2 Bft)
05.03.2016 15:30 2,9 C 2,5 C 74 % 996,1 hPa 0,0 mm 9,2 km/h (2 Bft) W 270 0 min -1,3 C 10,1 km/h (2 Bft)
05.03.2016 15:35 2,6 C 2,1 C 74 % 996,1 hPa 0,0 mm 8,3 km/h (2 Bft) W-NW 292 0 min -1,6 C 11,0 km/h (2 Bft)
05.03.2016 15:40 2,4 C 1,9 C 75 % 996,1 hPa 0,0 mm 8,3 km/h (2 Bft) W 270 0 min -1,6 C 5,7 km/h (1 Bft)
05.03.2016 15:45 2,0 C 1,9 C 75 % 996,1 hPa 0,0 mm 6,0 km/h (2 Bft) NW 315 0 min -2,0 C 6,6 km/h (2 Bft)
05.03.2016 15:50 1,9 C 1,6 C 76 % 996,1 hPa 0,0 mm 5,7 km/h (1 Bft) S-SO 157 0 min -1,9 C 14,0 km/h (3 Bft)
05.03.2016 15:55 1,6 C 1,3 C 76 % 996,1 hPa 0,0 mm 6,3 km/h (2 Bft) W-NW 292 0 min -2,2 C 9,8 km/h (2 Bft)
05.03.2016 16:00 1,5 C 1,2 C 76 % 996,1 hPa 0,0 mm 6,0 km/h (2 Bft) SW 225 0 min -2,3 C 9,8 km/h (2 Bft)
05.03.2016 16:05 1,3 C 1,0 C 77 % 996,1 hPa 0,0 mm 6,0 km/h (2 Bft) W-NW 292 0 min -2,3 C 5,1 km/h (1 Bft)
05.03.2016 16:10 1,1 C 0,8 C 77 % 996,2 hPa 0,7 mm 6,6 km/h (2 Bft) W 270 0 min -2,5 C 8,6 km/h (2 Bft)
05.03.2016 16:15 1,0 C 0,7 C 78 % 996,2 hPa 0,0 mm 6,0 km/h (2 Bft) W-NW 292 0 min -2,4 C 5,7 km/h (1 Bft)
05.03.2016 16:20 0,9 C 0,7 C 78 % 996,2 hPa 0,0 mm 6,3 km/h (2 Bft) W-NW 292 0 min -2,5 C 9,2 km/h (2 Bft)
05.03.2016 16:25 0,9 C 0,5 C 78 % 996,2 hPa 0,0 mm 6,9 km/h (2 Bft) W 270 0 min -2,5 C 9,8 km/h (2 Bft)
05.03.2016 16:30 0,8 C 0,3 C 78 % 996,3 hPa 0,0 mm 7,7 km/h (2 Bft) W-SW 247 0 min -2,6 C 8,0 km/h (2 Bft)
05.03.2016 16:35 0,8 C 0,3 C 79 % 996,3 hPa 0,0 mm 7,5 km/h (2 Bft) W-NW 292 0 min -2,4 C 11,3 km/h (2 Bft)
05.03.2016 16:40 0,8 C 0,4 C 79 % 996,3 hPa 0,0 mm 6,6 km/h (2 Bft) W-SW 247 0 min -2,4 C 7,5 km/h (2 Bft)
05.03.2016 16:45 0,8 C 0,6 C 79 % 996,3 hPa 0,0 mm 5,4 km/h (1 Bft) S 180 0 min -2,4 C 3,6 km/h (1 Bft)
05.03.2016 16:50 0,7 C 0,7 C 79 % 996,4 hPa 0,0 mm 4,2 km/h (1 Bft) NW 315 0 min -2,5 C 9,2 km/h (2 Bft)
05.03.2016 16:55 0,7 C 0,6 C 79 % 996,4 hPa 0,0 mm 4,2 km/h (1 Bft) S-SW 202 0 min -2,5 C 7,2 km/h (2 Bft)
05.03.2016 17:00 0,7 C 0,6 C 80 % 996,4 hPa 0,0 mm 4,2 km/h (1 Bft) SW 225 0 min -2,3 C 6,9 km/h (2 Bft)
05.03.2016 17:05 0,7 C 0,5 C 80 % 996,4 hPa 0,0 mm 4,8 km/h (1 Bft) W-SW 247 0 min -2,3 C 7,2 km/h (2 Bft)
05.03.2016 17:10 0,7 C 0,4 C 80 % 996,3 hPa 0,0 mm 5,1 km/h (1 Bft) W 270 0 min -2,3 C 4,5 km/h (1 Bft)
05.03.2016 17:15 0,6 C 0,3 C 80 % 996,3 hPa 0,0 mm 5,4 km/h (1 Bft) W-SW 247 0 min -2,4 C 7,5 km/h (2 Bft)
05.03.2016 17:20 0,6 C 0,3 C 81 % 996,3 hPa 0,0 mm 4,8 km/h (1 Bft) W-SW 247 0 min -2,3 C 6,3 km/h (2 Bft)
05.03.2016 17:25 0,6 C 0,2 C 81 % 996,3 hPa 0,0 mm 5,7 km/h (1 Bft) W-SW 247 0 min -2,3 C 6,9 km/h (2 Bft)
05.03.2016 17:30 0,6 C 0,3 C 81 % 996,3 hPa 0,0 mm 5,1 km/h (1 Bft) W-SW 247 0 min -2,3 C 7,7 km/h (2 Bft)
05.03.2016 17:36 0,6 C 0,3 C 85 % 996,3 hPa 0,0 mm 3,0 km/h (1 Bft) W 270 0 min -1,6 C 0,0 km/h (0 Bft)
05.03.2016 17:37 0,6 C 0,3 C 85 % 996,3 hPa 0,0 mm 3,0 km/h (1 Bft) W 270 0 min -1,6 C 0,0 km/h (0 Bft)
05.03.2016 17:38 0,6 C 0,3 C 85 % 996,3 hPa 0,0 mm 3,0 km/h (1 Bft) W 270 0 min -1,6 C 0,0 km/h (0 Bft)
05.03.2016 17:39 0,6 C 0,3 C 85 % 996,3 hPa 0,0 mm 3,0 km/h (1 Bft) W 270 0 min -1,6 C 0,0 km/h (0 Bft)
05.03.2016 17:40 0,6 C 0,3 C 85 % 996,3 hPa 0,0 mm 2,4 km/h (1 Bft) W-SW 247 0 min -1,6 C 4,5 km/h (1 Bft)
05.03.2016 17:42 0,6 C 0,3 C 85 % 996,3 hPa 0,0 mm 2,4 km/h (1 Bft) W-SW 247 0 min -1,6 C 4,5 km/h (1 Bft)
05.03.2016 17:53 0,5 C 0,3 C 85 % 996,4 hPa 0,0 mm 3,0 km/h (1 Bft) W-NW 292 0 min -1,7 C 0,0 km/h (0 Bft)
05.03.2016 17:54 0,5 C 0,3 C 85 % 996,4 hPa 0,0 mm 3,0 km/h (1 Bft) W-NW 292 0 min -1,7 C 0,0 km/h (0 Bft)
05.03.2016 17:55 0,5 C 0,2 C 85 % 996,4 hPa 0,0 mm 1,8 km/h (1 Bft) W 270 0 min -1,7 C 0,0 km/h (0 Bft)
05.03.2016 17:56 0,5 C 0,2 C 85 % 996,4 hPa 0,0 mm 1,8 km/h (1 Bft) W 270 0 min -1,7 C 0,0 km/h (0 Bft)
05.03.2016 17:57 0,5 C 0,2 C 85 % 996,4 hPa 0,0 mm 1,8 km/h (1 Bft) W 270 0 min -1,7 C 0,0 km/h (0 Bft)
05.03.2016 17:59 0,5 C 0,2 C 85 % 996,4 hPa 0,0 mm 1,8 km/h (1 Bft) W 270 0 min -1,7 C 0,0 km/h (0 Bft)
05.03.2016 18:04 0,4 C 0,2 C 85 % 996,4 hPa 0,0 mm 1,2 km/h (1 Bft) W 270 0 min -1,8 C 0,0 km/h (0 Bft)
05.03.2016 18:10 0,4 C 0,2 C 85 % 996,6 hPa 0,0 mm 1,5 km/h (1 Bft) W-SW 247 0 min -1,8 C 0,0 km/h (0 Bft)
05.03.2016 18:15 0,4 C 0,2 C 85 % 996,6 hPa 0,0 mm 1,8 km/h (1 Bft) NW 315 0 min -1,8 C 0,0 km/h (0 Bft)
05.03.2016 18:20 0,4 C 0,2 C 85 % 996,6 hPa 0,0 mm 2,4 km/h (1 Bft) W-NW 292 0 min -1,8 C 5,7 km/h (1 Bft)
05.03.2016 18:25 0,4 C 0,2 C 86 % 996,6 hPa 0,0 mm 3,6 km/h (1 Bft) W-NW 292 0 min -1,7 C 0,0 km/h (0 Bft)
05.03.2016 18:30 0,4 C 0,2 C 86 % 996,7 hPa 0,0 mm 4,2 km/h (1 Bft) W-SW 247 0 min -1,7 C 6,6 km/h (2 Bft)
05.03.2016 18:35 0,4 C 0,2 C 86 % 996,7 hPa 0,0 mm 3,6 km/h (1 Bft) W 270 0 min -1,7 C 6,3 km/h (2 Bft)
05.03.2016 18:40 0,4 C 0,2 C 86 % 996,7 hPa 0,0 mm 4,2 km/h (1 Bft) W-NW 292 0 min -1,7 C 3,0 km/h (1 Bft)
05.03.2016 18:45 0,4 C 0,2 C 87 % 996,7 hPa 0,0 mm 2,4 km/h (1 Bft) W-SW 247 0 min -1,5 C 0,0 km/h (0 Bft)
05.03.2016 18:50 0,4 C 0,2 C 87 % 996,8 hPa 0,0 mm 2,1 km/h (1 Bft) W 270 0 min -1,5 C 6,9 km/h (2 Bft)
05.03.2016 18:55 0,4 C 0,2 C 87 % 996,8 hPa 0,0 mm 3,3 km/h (1 Bft) W-SW 247 0 min -1,5 C 3,9 km/h (1 Bft)
05.03.2016 19:00 0,4 C 0,2 C 87 % 996,8 hPa 0,0 mm 3,3 km/h (1 Bft) W-SW 247 0 min -1,5 C 3,3 km/h (1 Bft)
05.03.2016 19:05 0,4 C 0,2 C 87 % 996,8 hPa 0,0 mm 3,6 km/h (1 Bft) W 270 0 min -1,5 C 8,0 km/h (2 Bft)
05.03.2016 19:10 0,4 C 0,2 C 87 % 996,8 hPa 0,0 mm 3,6 km/h (1 Bft) W 270 0 min -1,5 C 3,9 km/h (1 Bft)
05.03.2016 19:15 0,4 C 0,2 C 87 % 996,8 hPa 0,0 mm 4,2 km/h (1 Bft) W-SW 247 0 min -1,5 C 3,9 km/h (1 Bft)
05.03.2016 19:20 0,4 C 0,2 C 87 % 996,8 hPa 0,0 mm 3,9 km/h (1 Bft) W-SW 247 0 min -1,5 C 4,5 km/h (1 Bft)
05.03.2016 19:25 0,4 C 0,2 C 88 % 996,8 hPa 0,0 mm 4,5 km/h (1 Bft) W-SW 247 0 min -1,3 C 6,0 km/h (2 Bft)
05.03.2016 19:30 0,4 C 0,1 C 88 % 997,1 hPa 0,0 mm 5,1 km/h (1 Bft) W-SW 247 0 min -1,3 C 8,6 km/h (2 Bft)
05.03.2016 19:35 0,4 C 0,1 C 88 % 997,1 hPa 0,0 mm 5,1 km/h (1 Bft) W-SW 247 0 min -1,3 C 7,2 km/h (2 Bft)
05.03.2016 19:40 0,3 C 0,0 C 88 % 997,1 hPa 0,0 mm 5,1 km/h (1 Bft) W-SW 247 0 min -1,4 C 8,3 km/h (2 Bft)
05.03.2016 19:45 0,3 C 0,1 C 88 % 997,1 hPa 0,0 mm 3,9 km/h (1 Bft) W-SW 247 0 min -1,4 C 4,5 km/h (1 Bft)
05.03.2016 19:50 0,3 C 0,1 C 88 % 997,0 hPa 0,0 mm 3,3 km/h (1 Bft) W-SW 247 0 min -1,4 C 0,0 km/h (0 Bft)
05.03.2016 19:55 0,3 C 0,1 C 88 % 997,0 hPa 0,0 mm 1,5 km/h (1 Bft) W-SW 247 0 min -1,4 C 0,0 km/h (0 Bft)
05.03.2016 20:00 0,3 C 0,1 C 88 % 997,0 hPa 0,0 mm 0,9 km/h (0 Bft) W-SW 247 0 min -1,4 C 0,0 km/h (0 Bft)
05.03.2016 20:05 0,3 C 0,1 C 88 % 997,0 hPa 0,0 mm 1,5 km/h (1 Bft) W-SW 247 0 min -1,4 C 3,0 km/h (1 Bft)
05.03.2016 20:10 0,3 C 0,1 C 88 % 997,1 hPa 0,0 mm 1,5 km/h (1 Bft) W-SW 247 0 min -1,4 C 0,0 km/h (0 Bft)
05.03.2016 20:15 0,3 C 0,1 C 88 % 997,1 hPa 0,0 mm 1,8 km/h (1 Bft) W-SW 247 0 min -1,4 C 6,0 km/h (2 Bft)
05.03.2016 20:20 0,3 C 0,1 C 88 % 997,1 hPa 0,0 mm 2,4 km/h (1 Bft) W-SW 247 0 min -1,4 C 3,3 km/h (1 Bft)
05.03.2016 20:25 0,3 C 0,1 C 88 % 997,1 hPa 0,0 mm 2,7 km/h (1 Bft) W-SW 247 0 min -1,4 C 5,7 km/h (1 Bft)
05.03.2016 20:30 0,3 C 0,1 C 88 % 997,4 hPa 0,0 mm 2,7 km/h (1 Bft) W-SW 247 0 min -1,4 C 5,4 km/h (1 Bft)
05.03.2016 20:35 0,2 C 0,1 C 85 % 997,4 hPa 0,0 mm 2,4 km/h (1 Bft) W-SW 247 0 min -2,0 C 0,0 km/h (0 Bft)
05.03.2016 20:40 0,2 C 0,1 C 85 % 997,4 hPa 0,0 mm 2,7 km/h (1 Bft) W-SW 247 0 min -2,0 C 4,8 km/h (1 Bft)
05.03.2016 20:45 0,2 C 0,1 C 85 % 997,4 hPa 0,0 mm 3,9 km/h (1 Bft) W-SW 247 0 min -2,0 C 5,1 km/h (1 Bft)
05.03.2016 20:50 0,2 C 0,1 C 85 % 997,4 hPa 0,0 mm 2,4 km/h (1 Bft) W-SW 247 0 min -2,0 C 0,0 km/h (0 Bft)
05.03.2016 20:55 0,2 C 0,1 C 85 % 997,4 hPa 0,0 mm 0,3 km/h (0 Bft) W-SW 247 0 min -2,0 C 0,0 km/h (0 Bft)
05.03.2016 21:00 0,2 C 0,0 C 88 % 997,4 hPa 0,0 mm 0,0 km/h (0 Bft) W-SW 247 0 min -1,5 C 0,0 km/h (0 Bft)
05.03.2016 21:05 0,2 C 0,0 C 89 % 997,4 hPa 0,0 mm 0,0 km/h (0 Bft) W-SW 247 0 min -1,4 C 0,0 km/h (0 Bft)
05.03.2016 21:10 0,2 C 0,0 C 89 % 997,6 hPa 0,0 mm 0,0 km/h (0 Bft) W-SW 247 0 min -1,4 C 0,0 km/h (0 Bft)
05.03.2016 21:14 0,2 C 0,0 C 89 % 997,6 hPa 0,0 mm 0,0 km/h (0 Bft) W-SW 247 0 min -1,4 C 0,0 km/h (0 Bft)
05.03.2016 21:16 0,2 C 0,0 C 89 % 997,6 hPa 0,0 mm 0,0 km/h (0 Bft) W-SW 247 0 min -1,4 C 0,0 km/h (0 Bft)
05.03.2016 21:20 0,2 C 0,0 C 89 % 997,6 hPa 0,0 mm 0,0 km/h (0 Bft) W-SW 247 0 min -1,4 C 0,0 km/h (0 Bft)
05.03.2016 21:25 0,2 C 0,0 C 89 % 997,6 hPa 0,0 mm 0,0 km/h (0 Bft) W-SW 247 0 min -1,4 C 0,0 km/h (0 Bft)
05.03.2016 21:30 0,2 C 0,0 C 89 % 997,6 hPa 0,0 mm 0,0 km/h (0 Bft) W-SW 247 0 min -1,4 C 0,0 km/h (0 Bft)
05.03.2016 21:35 0,2 C 0,0 C 89 % 997,6 hPa 0,0 mm 0,0 km/h (0 Bft) W-SW 247 0 min -1,4 C 0,0 km/h (0 Bft)
05.03.2016 21:40 0,2 C 0,0 C 89 % 997,6 hPa 0,0 mm 0,0 km/h (0 Bft) W-SW 247 0 min -1,4 C 0,0 km/h (0 Bft)
05.03.2016 21:45 0,2 C 0,0 C 89 % 997,6 hPa 0,0 mm 0,0 km/h (0 Bft) W-SW 247 0 min -1,4 C 0,0 km/h (0 Bft)
05.03.2016 21:50 0,2 C 0,0 C 89 % 997,9 hPa 0,0 mm 0,0 km/h (0 Bft) W-SW 247 0 min -1,4 C 0,0 km/h (0 Bft)
05.03.2016 21:55 0,2 C 0,0 C 89 % 997,9 hPa 0,0 mm 0,0 km/h (0 Bft) W-SW 247 0 min -1,4 C 0,0 km/h (0 Bft)
05.03.2016 22:00 0,2 C 0,0 C 89 % 997,9 hPa 0,0 mm 0,0 km/h (0 Bft) W-SW 247 0 min -1,4 C 0,0 km/h (0 Bft)
05.03.2016 22:05 0,2 C 0,0 C 89 % 997,9 hPa 0,0 mm 0,0 km/h (0 Bft) W-SW 247 0 min -1,4 C 0,0 km/h (0 Bft)
05.03.2016 22:10 0,2 C 0,0 C 89 % 997,8 hPa 0,0 mm 0,0 km/h (0 Bft) W-SW 247 0 min -1,4 C 0,0 km/h (0 Bft)
05.03.2016 22:15 0,2 C 0,0 C 89 % 997,8 hPa 0,0 mm 0,0 km/h (0 Bft) W-SW 247 0 min -1,4 C 0,0 km/h (0 Bft)
05.03.2016 22:20 0,2 C 0,0 C 89 % 997,8 hPa 0,0 mm 0,0 km/h (0 Bft) W-SW 247 0 min -1,4 C 0,0 km/h (0 Bft)
05.03.2016 22:25 0,2 C 0,0 C 89 % 997,8 hPa 0,0 mm 0,0 km/h (0 Bft) W-SW 247 0 min -1,4 C 0,0 km/h (0 Bft)
05.03.2016 22:30 0,1 C -0,1 C 89 % 998,0 hPa 0,0 mm 0,0 km/h (0 Bft) W-SW 247 0 min -1,5 C 0,0 km/h (0 Bft)
05.03.2016 22:35 0,1 C -0,1 C 89 % 998,0 hPa 0,0 mm 0,0 km/h (0 Bft) W-SW 247 0 min -1,5 C 0,0 km/h (0 Bft)
05.03.2016 22:40 0,1 C -0,1 C 89 % 998,0 hPa 0,0 mm 0,0 km/h (0 Bft) W-SW 247 0 min -1,5 C 0,0 km/h (0 Bft)
05.03.2016 22:45 0,1 C -0,1 C 89 % 998,0 hPa 0,0 mm 0,0 km/h (0 Bft) W-SW 247 0 min -1,5 C 0,0 km/h (0 Bft)
05.03.2016 22:50 0,1 C -0,1 C 89 % 998,1 hPa 0,0 mm 0,0 km/h (0 Bft) W-SW 247 0 min -1,5 C 0,0 km/h (0 Bft)
05.03.2016 22:55 0,1 C -0,1 C 89 % 998,1 hPa 0,0 mm 0,0 km/h (0 Bft) W-SW 247 0 min -1,5 C 0,0 km/h (0 Bft)
05.03.2016 23:00 0,1 C -0,1 C 89 % 998,1 hPa 0,0 mm 0,0 km/h (0 Bft) W-SW 247 0 min -1,5 C 0,0 km/h (0 Bft)
05.03.2016 23:05 0,0 C -0,1 C 86 % 998,1 hPa 0,0 mm 0,0 km/h (0 Bft) W-SW 247 0 min -2,1 C 0,0 km/h (0 Bft)
05.03.2016 23:10 0,0 C -0,1 C 86 % 997,7 hPa 0,0 mm 0,0 km/h (0 Bft) W-SW 247 0 min -2,1 C 0,0 km/h (0 Bft)
05.03.2016 23:15 0,0 C -0,1 C 86 % 997,7 hPa 0,0 mm 0,0 km/h (0 Bft) W-SW 247 0 min -2,1 C 0,0 km/h (0 Bft)
05.03.2016 23:20 0,0 C -0,1 C 86 % 997,7 hPa 0,0 mm 0,0 km/h (0 Bft) W-SW 247 0 min -2,1 C 0,0 km/h (0 Bft)
05.03.2016 23:25 0,0 C -0,1 C 86 % 997,7 hPa 0,0 mm 0,0 km/h (0 Bft) W-SW 247 0 min -2,1 C 0,0 km/h (0 Bft)
05.03.2016 23:30 0,0 C -0,1 C 86 % 997,2 hPa 0,0 mm 0,0 km/h (0 Bft) W-SW 247 0 min -2,1 C 0,0 km/h (0 Bft)
05.03.2016 23:35 0,0 C -0,1 C 86 % 997,2 hPa 0,0 mm 0,0 km/h (0 Bft) W-SW 247 0 min -2,1 C 0,0 km/h (0 Bft)
05.03.2016 23:40 0,0 C -0,1 C 86 % 997,2 hPa 0,0 mm 0,0 km/h (0 Bft) W-SW 247 0 min -2,1 C 0,0 km/h (0 Bft)
05.03.2016 23:45 0,0 C -0,2 C 89 % 997,2 hPa 0,0 mm 0,0 km/h (0 Bft) W-SW 247 0 min -1,6 C 0,0 km/h (0 Bft)
05.03.2016 23:50 0,0 C -0,2 C 89 % 997,5 hPa 0,0 mm 0,0 km/h (0 Bft) W-SW 247 0 min -1,6 C 0,0 km/h (0 Bft)
05.03.2016 23:55 0,0 C -0,1 C 86 % 997,5 hPa 0,0 mm 0,0 km/h (0 Bft) W-SW 247 0 min -2,1 C 0,0 km/h (0 Bft)
_ Min-Zeit 01:15 01:10 04:20 05:25 - 23:55 - - - 06:05 23:55
Minimum _ -1,5 C -1,8 C 57 % 994,4 hPa - 0,0 km/h (0 Bft) - - - -5,8 C 0,0 km/h (0 Bft)
_ Max-Zeit 13:16 12:40 23:50 23:05 16:10 11:25 - - 23:55 13:16 11:30
Maximum _ 5,6 C 8,9 C 89 % 998,1 hPa 0,7 mm 16,1 km/h
W-NW (3 Bft)
- - 0 min 0,2 C 28,0 km/h
W (4 Bft)
Durchschnitt _ 2,1 C 2,6 C 73 % 996,4 hPa #0,7 mm 4,2 km/h (1 Bft) W-SW - #0 min. -2,3 C 5,6 km/h (1 Bft)